Home > Time Zones > World Clock > Weather > Italy > Turin > Past weeks

Flag for Italy Weather past 2 weeks in Turin, Italy

Now
73 °F

Scattered clouds.


Feels Like: 75 °F
Forecast: 65 / 76 °F
Wind: 8 mph from South

Location: Torino / Bric Della Croce

Current Time: Jul 25, 2014 at 4:35:30 PM

Latest Report: Jul 25, 2014 at 3:55 PM


Visibility: N/A

Pressure: 29.95 "Hg

Humidity: 74%

Dew point: 64 °F

Location of TurinLocation

Historic Weather in Turin — Graph

°F

Turin temperature yesterday

Maximum temperature yesterday: 70 °F (at 3:55 PM)
Minimum temperature yesterday: 61 °F (at 4:55 AM)
Average temperature yesterday: 65 °F

Past Weeks' High & Low Weather Summary

 TemperatureHumidityPressure
High82 °F (Jul 18, 3:55 PM)100% (Jul 13, 5:55 AM)30.21 "Hg (Jul 13, 5:55 AM)
Low59 °F (Jul 25, 3:55 AM)42% (Jul 16, 5:55 PM)29.74 "Hg (Jul 10, 2:55 PM)
Average69 °F80%29.98 "Hg
* Reported Jul 10 2:55 PM — Jul 25 2:55 PM, Turin, Weather by CustomWeather, © 2014

Note: Actual official high and low records may vary slightly from our data, if they occured in-between our weather recording intervals... More about our weather records

Advertising

Turin weather history for previous 24 hours

 ConditionsComfort  
Time TempWeatherWind HumidityBarometerVisibility
2:55 PM
Jul 25
73 °FPassing clouds.5 mph74%29.98 "HgN/A
1:55 PM72 °FScattered clouds.6 mph73%29.98 "HgN/A
12:55 PM70 °FScattered clouds.6 mph88%30.01 "HgN/A
11:55 AM66 °FFog.6 mph100%30.01 "Hg2 mi
10:55 AM66 °FFog.5 mph100%29.98 "Hg2 mi
9:55 AM64 °FFog.No wind100%29.98 "Hg0 mi
8:55 AM63 °FSunny.No wind100%29.98 "Hg10 mi
7:55 AM63 °FSunny.3 mph100%29.98 "Hg10 mi
6:55 AM63 °FClear.No wind100%29.95 "Hg10 mi
5:55 AM63 °FPassing clouds.3 mph100%29.98 "HgN/A
4:55 AM63 °FPassing clouds.2 mph100%29.98 "HgN/A
3:55 AM59 °FPassing clouds.2 mph94%29.98 "HgN/A
2:55 AM63 °FPassing clouds.3 mph100%29.98 "HgN/A
1:55 AM63 °FPassing clouds.5 mph100%29.98 "HgN/A
12:55 AM64 °FPassing clouds.6 mph100%29.98 "HgN/A
11:55 PM
Jul 24
64 °FPassing clouds.No wind100%29.98 "HgN/A
10:55 PM64 °FPassing clouds.No wind94%29.98 "HgN/A
9:55 PM64 °FLight rain. Scattered clouds.7 mph100%29.95 "HgN/A
8:55 PM68 °FThunderstorms. Scattered clouds.6 mph100%29.92 "HgN/A
7:55 PM68 °FPassing clouds.6 mph88%29.92 "HgN/A
6:55 PM70 °FPassing clouds.5 mph88%29.92 "HgN/A
5:55 PM70 °FPassing clouds.3 mph83%29.92 "HgN/A
4:55 PM70 °FPassing clouds.3 mph78%29.92 "HgN/A
Weather by CustomWeather, © 2014

See weather overviewHow to use our weather pages